Location: Taska
(34.9190°N, 89.5654°W)
Time: 21:45:42
(UTC+00:00)

Daily predictions for brighter satellites

Satellite Brightness Start Highest point End
(mag) Time Altitude Azimuth Time Altitude Azimuth Time Altitude Azimuth
SL-4 R/B 4.2 12:00:02 10° N 12:02:13 15° NNE 12:04:26 10° ENE
Cosmos 1812 1.4 12:00:17 10° S 12:02:41 89° ESE 12:05:07 10° N
Cosmos 990 Rocket 3.9 12:00:27 10° SSW 12:05:38 72° WNW 12:10:52 10° NNE
NOSS 3-1 (C) 3.3 12:02:04 10° WSW 12:06:16 39° NW 12:11:05 10° NNE
Exosat Rocket 3.6 12:02:54 10° NNW 12:08:07 55° WSW 12:12:59 10° S
DELTA 2 R/B(2) 3.7 12:06:46 13° WNW 12:09:05 60° SSW 12:10:55 10° ESE
Cosmos 1980 Rocket 2.7 12:04:13 10° SW 12:09:22 37° WNW 12:14:32 10° N
NOSS 3-1 (A) 3.0 12:06:05 10° SSW 12:10:27 74° ESE 12:15:29 10° NE
Cosmos 1674 Rocket 4.2 12:08:41 10° NNW 12:12:39 33° W 12:16:32 10° SSW
Cosmos 2237 4.3 12:08:33 10° SSW 12:14:14 88° ESE 12:19:58 10° NNE
USA 215 3.4 12:08:06 10° SE 12:14:40 83° NE 12:21:16 10° NW
COSMOS 2455 3.7 12:10:01 10° WSW 12:15:04 28° NW 12:20:11 10° N
Cosmos 1697 Rocket 4.4 12:19:39 10° W 12:22:15 13° NW 12:24:52 10° NNW
Cosmos 2084 4.2 12:20:43 10° NW 12:24:18 31° WSW 12:27:51 10° S
